This is the latest recevied weather packets stored in our database for station/object WD4ITN. If no packets are shown the sender has not sent any weather packets the latest 10 day(s).
| Time | Temp. | Humidity | Pressure | Rain* | Wind** | Luminosity | Snow |
|---|---|---|---|---|---|---|---|
| 1777858417 | 7.78° C | 52% | 1013.3 hPa | 0 mm | - | - | - |
| 1777858106 | 7.78° C | 51% | 1013.2 hPa | 0 mm | - | - | - |
| 1777857807 | 8.33° C | 51% | 1013.1 hPa | 0 mm | - | - | - |
| 1777857495 | 7.78° C | 52% | 1013.1 hPa | 0 mm | - | - | - |
| 1777857195 | 7.78° C | 51% | 1013.1 hPa | 0 mm | - | - | - |
| 1777856896 | 7.78° C | 51% | 1013.1 hPa | 0 mm | - | - | - |
| 1777856609 | 7.78° C | 50% | 1013.1 hPa | 0 mm | - | - | - |
| 1777856307 | 7.78° C | 48% | 1013 hPa | 0 mm | - | - | - |
| 1777856005 | 8.33° C | 49% | 1012.9 hPa | 0 mm | - | - | - |
| 1777855694 | 8.33° C | 49% | 1013.1 hPa | 0 mm | - | - | - |
| 1777855412 | 8.89° C | 45% | 1012.9 hPa | 0 mm | - | - | - |
| 1777855109 | 8.89° C | 46% | 1012.8 hPa | 0 mm | - | - | - |
| 1777854814 | 9.44° C | 45% | 1012.8 hPa | 0 mm | - | - | - |
| 1777854501 | 9.44° C | 43% | 1012.8 hPa | 0 mm | - | - | - |
| 1777854198 | 9.44° C | 43% | 1012.7 hPa | 0 mm | - | - | - |
| 1777853919 | 9.44° C | 41% | 1012.7 hPa | 0 mm | - | - | - |
| 1777853606 | 10° C | 42% | 1012.7 hPa | 0 mm | - | - | - |
| 1777853304 | 10° C | 40% | 1012.7 hPa | 0 mm | - | - | - |
| 1777853021 | 10.56° C | 39% | 1012.7 hPa | 0 mm | - | - | - |
| 1777852695 | 10.56° C | 40% | 1012.7 hPa | 0 mm | - | - | - |
| 1777852391 | 10.56° C | 37% | 1012.6 hPa | 0 mm | - | - | - |
| 1777852118 | 11.11° C | 36% | 1012.6 hPa | 0 mm | - | - | - |
| 1777851808 | 11.11° C | 37% | 1012.7 hPa | 0 mm | - | - | - |
| 1777851511 | 11.11° C | 36% | 1012.8 hPa | 0 mm | - | - | - |
| 1777851200 | 11.11° C | 35% | 1012.8 hPa | 0 mm | - | - | - |
* Rain since midnight (hover to see other rain measurements)
** Current wind speed in m/s (hover to see current wind gust speed)